RYR77KA LEPA-EICK

Flight info

Callsign RYR77KA
Flight time 2h 6m
Altitude 34000
Route DRAGO N863 GIROM DCT AGN DCT SECHE DCT UVELI DCT CNA DCT MANAK UT183 BAGAD DCT DOLUR DCT EVCOR N160 LEDGO DCT ERTER ERTER1G
Aircraft B738/M-SDE2E3FGHIRWXY/LB1

Departure

Time 2026-05-04 11:44
Airport Palma de Mallorca Airport (LEPA)

Arrival

Time 2026-05-04 13:51
Airport Cork International Airport (EICK)
Time Latitude Longitude Altitude Speed Heading
2026-05-04 11:20 39.54946 2.73773 34 ft 0 kts 239°
2026-05-04 11:34 39.54951 2.73784 34 ft 2 kts 239°
2026-05-04 11:34 39.54959 2.73800 35 ft 2 kts 239°
2026-05-04 11:35 39.54967 2.73816 35 ft 2 kts 239°
2026-05-04 11:35 39.54975 2.73833 36 ft 2 kts 239°
2026-05-04 11:35 39.54981 2.73853 36 ft 2 kts 263°
2026-05-04 11:35 39.54981 2.73874 36 ft 2 kts 284°
2026-05-04 11:36 39.54975 2.73894 36 ft 2 kts 304°
2026-05-04 11:36 39.54964 2.73909 35 ft 1 kts 325°
2026-05-04 11:36 39.54958 2.73913 35 ft 1 kts 329°
2026-05-04 11:36 39.54958 2.73914 35 ft 0 kts 329°
2026-05-04 11:39 39.54961 2.73911 35 ft 1 kts 329°
2026-05-04 11:40 39.55372 2.73697 29 ft 17 kts 328°
2026-05-04 11:41 39.55484 2.73608 23 ft 20 kts 328°
2026-05-04 11:41 39.55597 2.73519 19 ft 15 kts 329°
2026-05-04 11:41 39.55683 2.73565 16 ft 18 kts 58°
2026-05-04 11:41 39.55757 2.73724 16 ft 20 kts 59°
2026-05-04 11:42 39.55829 2.73876 18 ft 19 kts 59°
2026-05-04 11:42 39.55900 2.74023 18 ft 19 kts 59°
2026-05-04 11:42 39.55968 2.74167 18 ft 18 kts 59°
2026-05-04 11:42 39.56034 2.74309 19 ft 18 kts 59°
2026-05-04 11:43 39.56110 2.74444 15 ft 18 kts 28°
2026-05-04 11:43 39.56224 2.74400 12 ft 18 kts 319°
2026-05-04 11:43 39.56231 2.74279 12 ft 13 kts 239°
2026-05-04 11:43 39.56181 2.74172 13 ft 14 kts 238°
2026-05-04 11:44 39.56041 2.73876 13 ft 76 kts 238°
2026-05-04 11:44 39.55631 2.73007 14 ft 148 kts 238°
2026-05-04 11:44 39.55027 2.71733 448 ft 174 kts 238°
2026-05-04 11:44 39.54419 2.70381 1307 ft 180 kts 239°
2026-05-04 11:45 39.53796 2.68994 2047 ft 187 kts 239°
2026-05-04 11:45 39.53085 2.67476 2538 ft 205 kts 238°
2026-05-04 11:45 39.52299 2.65892 3163 ft 218 kts 237°
2026-05-04 11:45 39.51471 2.64265 4139 ft 214 kts 236°
2026-05-04 11:46 39.50693 2.62742 5168 ft 206 kts 236°
2026-05-04 11:46 39.49880 2.61096 5551 ft 230 kts 237°
2026-05-04 11:46 39.49018 2.59351 6450 ft 228 kts 236°
2026-05-04 11:46 39.48190 2.57719 7572 ft 216 kts 235°
2026-05-04 11:47 39.47311 2.56090 8175 ft 227 kts 234°
2026-05-04 11:47 39.46403 2.54427 8938 ft 229 kts 234°
2026-05-04 11:47 39.45491 2.52721 9667 ft 234 kts 235°
2026-05-04 11:47 39.44767 2.50817 10168 ft 249 kts 257°
2026-05-04 11:48 39.44896 2.48532 10647 ft 269 kts 288°
2026-05-04 11:48 39.45964 2.46484 11117 ft 291 kts 315°
2026-05-04 11:48 39.47662 2.44967 11562 ft 307 kts 326°
2026-05-04 11:48 39.49573 2.43548 11997 ft 323 kts 327°
2026-05-04 11:49 39.51589 2.42076 12434 ft 338 kts 327°
2026-05-04 11:49 39.53646 2.40551 12809 ft 352 kts 326°
2026-05-04 11:49 39.55684 2.38727 13573 ft 352 kts 317°
2026-05-04 11:49 39.57444 2.36606 14392 ft 351 kts 310°
2026-05-04 11:50 39.59098 2.34301 15152 ft 352 kts 307°
2026-05-04 11:50 39.60740 2.31917 15901 ft 354 kts 307°
2026-05-04 11:50 39.62380 2.29558 16643 ft 357 kts 307°
2026-05-04 11:50 39.64053 2.27209 17363 ft 359 kts 308°
2026-05-04 11:51 39.65762 2.24863 18079 ft 360 kts 307°
2026-05-04 11:51 39.67490 2.22509 18662 ft 365 kts 307°
2026-05-04 11:51 39.69235 2.20125 19188 ft 371 kts 307°
2026-05-04 11:51 39.71017 2.17692 19808 ft 374 kts 307°
2026-05-04 11:52 39.72818 2.15233 20370 ft 378 kts 307°
2026-05-04 11:52 39.74640 2.12737 20933 ft 381 kts 306°
2026-05-04 11:52 39.76459 2.10242 21417 ft 386 kts 306°
2026-05-04 11:52 39.78316 2.07687 21957 ft 390 kts 306°
2026-05-04 11:53 39.80162 2.05139 22477 ft 393 kts 306°
2026-05-04 11:53 39.82040 2.02547 22986 ft 396 kts 306°
2026-05-04 11:53 39.83942 1.99918 23427 ft 401 kts 305°
2026-05-04 11:53 39.85858 1.97271 23960 ft 404 kts 305°
2026-05-04 11:55 39.99808 1.78354 27199 ft 431 kts 312°
2026-05-04 11:55 40.02264 1.76042 27503 ft 446 kts 321°
2026-05-04 11:56 40.05038 1.74152 27925 ft 455 kts 326°
2026-05-04 11:56 40.07943 1.72429 28304 ft 461 kts 327°
2026-05-04 11:56 40.10937 1.70911 28623 ft 469 kts 333°
2026-05-04 11:56 40.14035 1.69556 29006 ft 472 kts 335°
2026-05-04 11:57 40.17156 1.68209 29416 ft 472 kts 333°
2026-05-04 11:57 40.20234 1.66782 29910 ft 469 kts 333°
2026-05-04 11:57 40.23291 1.65304 30491 ft 464 kts 331°
2026-05-04 11:57 40.26286 1.63781 31031 ft 459 kts 330°
2026-05-04 11:58 40.29223 1.62211 31520 ft 456 kts 329°
2026-05-04 11:58 40.32131 1.60650 32023 ft 453 kts 329°
2026-05-04 11:58 40.35045 1.59092 32351 ft 455 kts 329°
2026-05-04 11:58 40.37975 1.57535 32731 ft 454 kts 329°
2026-05-04 11:59 40.40870 1.56009 33164 ft 453 kts 329°
2026-05-04 11:59 40.43810 1.54464 33430 ft 455 kts 329°
2026-05-04 11:59 40.46751 1.52928 33845 ft 452 kts 329°
2026-05-04 11:59 40.49680 1.51402 33948 ft 455 kts 330°
2026-05-04 12:00 40.52589 1.49883 33946 ft 455 kts 330°
2026-05-04 12:00 40.58435 1.46844 33957 ft 450 kts 330°
2026-05-04 12:01 40.64245 1.43821 33956 ft 451 kts 330°
2026-05-04 12:02 40.85270 1.32788 33957 ft 481 kts 329°
2026-05-04 12:03 40.91472 1.29534 33958 ft 482 kts 330°
2026-05-04 12:03 40.97684 1.26273 33963 ft 480 kts 330°
2026-05-04 12:04 41.03921 1.22983 33956 ft 482 kts 329°
2026-05-04 12:04 41.10146 1.19693 33965 ft 480 kts 330°
2026-05-04 12:05 41.16713 1.16797 33967 ft 492 kts 340°
2026-05-04 12:05 41.23754 1.15586 33972 ft 502 kts 349°
2026-05-04 12:06 41.30883 1.15044 33976 ft 502 kts 350°
2026-05-04 12:06 41.38143 1.14508 33969 ft 502 kts 349°
2026-05-04 12:07 41.45383 1.13872 33965 ft 501 kts 349°
2026-05-04 12:07 41.52452 1.13176 33950 ft 502 kts 349°
2026-05-04 12:08 41.59439 1.12453 33947 ft 500 kts 349°
2026-05-04 12:08 41.66347 1.11729 33953 ft 500 kts 349°
2026-05-04 12:09 41.73304 1.10986 33954 ft 502 kts 349°
2026-05-04 12:09 41.80320 1.10230 33937 ft 501 kts 349°
2026-05-04 12:10 41.87294 1.09481 33939 ft 502 kts 349°
2026-05-04 12:10 41.94246 1.08741 33954 ft 501 kts 349°
2026-05-04 12:11 42.01232 1.07998 33951 ft 501 kts 349°
2026-05-04 12:11 42.08223 1.07249 33961 ft 503 kts 349°
2026-05-04 12:12 42.15369 1.06482 33964 ft 502 kts 349°
2026-05-04 12:12 42.22386 1.05729 33968 ft 502 kts 349°
2026-05-04 12:14 42.50567 1.02679 33970 ft 502 kts 349°
2026-05-04 12:15 42.57596 1.01918 33950 ft 504 kts 349°
2026-05-04 12:15 42.64575 1.01154 33948 ft 502 kts 349°
2026-05-04 12:16 42.71571 1.00382 33948 ft 504 kts 349°
2026-05-04 12:16 42.78527 0.99613 33944 ft 503 kts 349°
2026-05-04 12:17 42.85538 0.98838 33937 ft 504 kts 349°
2026-05-04 12:17 42.92541 0.98066 33948 ft 504 kts 349°
2026-05-04 12:18 42.99575 0.97294 33926 ft 505 kts 349°
2026-05-04 12:18 43.06611 0.96516 33931 ft 506 kts 349°
2026-05-04 12:19 43.13656 0.95751 33930 ft 505 kts 349°
2026-05-04 12:19 43.20641 0.94983 33928 ft 506 kts 349°
2026-05-04 12:20 43.27682 0.94192 33926 ft 506 kts 349°
2026-05-04 12:20 43.34725 0.93400 33928 ft 506 kts 349°
2026-05-04 12:21 43.41744 0.92612 33933 ft 502 kts 350°
2026-05-04 12:21 43.48709 0.91834 33942 ft 501 kts 350°
2026-05-04 12:22 43.55699 0.91045 33926 ft 501 kts 350°
2026-05-04 12:22 43.62669 0.90252 33931 ft 501 kts 350°
2026-05-04 12:23 43.69665 0.89452 33941 ft 500 kts 351°
2026-05-04 12:23 43.76659 0.88665 33938 ft 501 kts 351°
2026-05-04 12:24 43.83671 0.87848 33942 ft 500 kts 349°
2026-05-04 12:24 43.90395 0.86073 33929 ft 489 kts 336°
2026-05-04 12:25 43.96714 0.82613 33924 ft 485 kts 329°
2026-05-04 12:25 44.02803 0.78593 33922 ft 481 kts 328°
2026-05-04 12:26 44.08808 0.74521 33945 ft 483 kts 328°
2026-05-04 12:26 44.14923 0.70469 33949 ft 484 kts 329°
2026-05-04 12:27 44.21036 0.66473 33952 ft 483 kts 329°
2026-05-04 12:27 44.27166 0.62477 33941 ft 484 kts 329°
2026-05-04 12:28 44.33265 0.58496 33939 ft 483 kts 330°
2026-05-04 12:28 44.39370 0.54498 33939 ft 484 kts 330°
2026-05-04 12:29 44.45450 0.50507 33932 ft 482 kts 330°
2026-05-04 12:29 44.51491 0.46513 33918 ft 484 kts 330°
2026-05-04 12:30 44.57592 0.42459 33914 ft 484 kts 330°
2026-05-04 12:30 44.63651 0.38427 33965 ft 484 kts 330°
2026-05-04 12:31 44.69729 0.34369 33912 ft 484 kts 329°
2026-05-04 12:31 44.75812 0.30300 33950 ft 484 kts 329°
2026-05-04 12:32 44.84895 0.24209 33944 ft 483 kts 329°
2026-05-04 12:33 44.90949 0.20135 33924 ft 483 kts 330°
2026-05-04 12:33 44.97021 0.16042 33912 ft 483 kts 330°
2026-05-04 12:34 45.03041 0.11973 33903 ft 483 kts 329°
2026-05-04 12:34 45.09088 0.07875 33928 ft 482 kts 330°
2026-05-04 12:35 45.15144 0.03766 33910 ft 483 kts 330°
2026-05-04 12:35 45.21171 -0.00335 33910 ft 485 kts 330°
2026-05-04 12:36 45.27235 -0.04475 33907 ft 483 kts 330°
2026-05-04 12:36 45.33286 -0.08615 33907 ft 484 kts 330°
2026-05-04 12:37 45.39336 -0.12765 33912 ft 485 kts 330°
2026-05-04 12:37 45.45394 -0.16929 33919 ft 485 kts 330°
2026-05-04 12:38 45.51435 -0.21089 33921 ft 486 kts 330°
2026-05-04 12:38 45.57501 -0.25278 33953 ft 485 kts 330°
2026-05-04 12:39 45.63544 -0.29537 33960 ft 484 kts 328°
2026-05-04 12:39 45.69211 -0.34652 33961 ft 480 kts 320°
2026-05-04 12:40 45.74496 -0.40440 33959 ft 479 kts 317°
2026-05-04 12:40 45.79682 -0.46403 33953 ft 480 kts 317°
2026-05-04 12:41 45.84859 -0.52363 33932 ft 480 kts 317°
2026-05-04 12:41 45.90058 -0.58314 33930 ft 479 kts 318°
2026-05-04 12:42 45.95277 -0.64268 33928 ft 479 kts 318°
2026-05-04 12:42 46.00487 -0.70216 33926 ft 481 kts 317°
2026-05-04 12:43 46.05708 -0.76192 33933 ft 480 kts 317°
2026-05-04 12:43 46.10934 -0.82185 33924 ft 481 kts 317°
2026-05-04 12:44 46.16146 -0.88176 33932 ft 480 kts 317°
2026-05-04 12:44 46.21337 -0.94159 33952 ft 480 kts 317°
2026-05-04 12:45 46.26550 -1.00180 33952 ft 482 kts 317°
2026-05-04 12:45 46.31778 -1.06232 33955 ft 481 kts 317°
2026-05-04 12:46 46.36974 -1.12262 33930 ft 483 kts 317°
2026-05-04 12:46 46.42203 -1.18350 33922 ft 482 kts 318°
2026-05-04 12:47 46.47422 -1.24443 33919 ft 483 kts 318°
2026-05-04 12:47 46.52634 -1.30539 33932 ft 482 kts 318°
2026-05-04 12:48 46.57814 -1.36608 33946 ft 481 kts 318°
2026-05-04 12:48 46.62808 -1.43041 33973 ft 479 kts 312°
2026-05-04 12:49 46.66879 -1.49159 33975 ft 478 kts 310°
2026-05-04 12:49 46.71417 -1.56245 33969 ft 478 kts 310°
2026-05-04 12:50 46.75924 -1.63255 33987 ft 480 kts 310°
2026-05-04 12:50 46.80512 -1.70323 33940 ft 479 kts 310°
2026-05-04 12:51 46.85086 -1.77338 33969 ft 480 kts 310°
2026-05-04 12:51 46.89694 -1.84401 33960 ft 479 kts 310°
2026-05-04 12:52 46.94259 -1.91418 33940 ft 479 kts 310°
2026-05-04 12:52 46.98833 -1.98462 33968 ft 481 kts 310°
2026-05-04 12:53 47.03458 -2.05545 33961 ft 479 kts 311°
2026-05-04 12:53 47.08124 -2.12471 33955 ft 478 kts 312°
2026-05-04 12:54 47.12809 -2.19379 33995 ft 480 kts 312°
2026-05-04 12:54 47.17467 -2.26294 33978 ft 479 kts 312°
2026-05-04 12:55 47.22116 -2.33236 33969 ft 479 kts 312°
2026-05-04 12:55 47.26791 -2.40247 33965 ft 478 kts 312°
2026-05-04 12:56 47.31421 -2.47213 33971 ft 479 kts 312°
2026-05-04 12:56 47.36059 -2.54214 33969 ft 478 kts 312°
2026-05-04 12:57 47.40686 -2.61213 33945 ft 479 kts 312°
2026-05-04 12:57 47.45321 -2.68241 33938 ft 477 kts 312°
2026-05-04 12:58 47.49959 -2.75291 33970 ft 479 kts 311°
2026-05-04 12:58 47.54650 -2.82440 33961 ft 478 kts 311°
2026-05-04 12:59 47.59583 -2.89425 33939 ft 480 kts 318°
2026-05-04 12:59 47.65072 -2.95759 33955 ft 480 kts 321°
2026-05-04 13:00 47.70746 -3.01879 33944 ft 479 kts 322°
2026-05-04 13:00 47.76393 -3.07964 33972 ft 479 kts 322°
2026-05-04 13:01 47.81995 -3.14078 33936 ft 480 kts 322°
2026-05-04 13:01 47.87553 -3.20195 33958 ft 479 kts 322°
2026-05-04 13:02 47.93207 -3.26451 33959 ft 479 kts 322°
2026-05-04 13:02 47.98713 -3.32568 33982 ft 479 kts 322°
2026-05-04 13:03 48.04353 -3.38853 33967 ft 480 kts 322°
2026-05-04 13:03 48.09771 -3.44905 33945 ft 477 kts 322°
2026-05-04 13:04 48.15247 -3.51044 33975 ft 480 kts 322°
2026-05-04 13:04 48.20616 -3.57079 33963 ft 477 kts 322°
2026-05-04 13:05 48.26022 -3.63172 33973 ft 478 kts 322°
2026-05-04 13:05 48.31344 -3.69184 33956 ft 477 kts 322°
2026-05-04 13:06 48.36620 -3.75163 33951 ft 477 kts 321°
2026-05-04 13:06 48.41919 -3.81181 33990 ft 478 kts 321°
2026-05-04 13:07 48.47227 -3.87227 33983 ft 474 kts 322°
2026-05-04 13:07 48.52461 -3.93204 33992 ft 477 kts 322°
2026-05-04 13:08 48.57713 -3.99216 33999 ft 475 kts 322°
2026-05-04 13:08 48.63000 -4.05283 34007 ft 477 kts 322°
2026-05-04 13:09 48.68237 -4.11311 33964 ft 476 kts 322°
2026-05-04 13:09 48.73471 -4.17352 33982 ft 475 kts 322°
2026-05-04 13:10 48.78732 -4.23441 33973 ft 477 kts 322°
2026-05-04 13:10 48.83955 -4.29501 33988 ft 475 kts 322°
2026-05-04 13:11 48.89207 -4.35611 33977 ft 475 kts 322°
2026-05-04 13:11 48.94399 -4.41666 33985 ft 475 kts 322°
2026-05-04 13:12 48.99636 -4.47792 33994 ft 476 kts 322°
2026-05-04 13:12 49.04861 -4.53919 33988 ft 476 kts 322°
2026-05-04 13:13 49.10084 -4.60063 33961 ft 474 kts 322°
2026-05-04 13:13 49.15265 -4.66174 33993 ft 473 kts 322°
2026-05-04 13:14 49.20479 -4.72341 33961 ft 475 kts 322°
2026-05-04 13:14 49.25666 -4.78489 33995 ft 474 kts 322°
2026-05-04 13:15 49.30874 -4.84682 33976 ft 473 kts 322°
2026-05-04 13:15 49.36050 -4.90854 33977 ft 475 kts 322°
2026-05-04 13:16 49.41231 -4.97047 33994 ft 476 kts 322°
2026-05-04 13:16 49.46432 -5.03278 33996 ft 473 kts 322°
2026-05-04 13:17 49.51531 -5.09577 33979 ft 475 kts 320°
2026-05-04 13:17 49.56471 -5.16300 33984 ft 475 kts 318°
2026-05-04 13:18 49.61332 -5.23088 33982 ft 475 kts 318°
2026-05-04 13:18 49.66242 -5.29909 33984 ft 476 kts 319°
2026-05-04 13:19 49.71136 -5.36672 33988 ft 475 kts 319°
2026-05-04 13:19 49.76047 -5.43445 34002 ft 474 kts 319°
2026-05-04 13:20 49.80961 -5.50231 33997 ft 476 kts 319°
2026-05-04 13:20 49.85950 -5.57136 34011 ft 476 kts 320°
2026-05-04 13:21 49.90983 -5.64125 34009 ft 473 kts 320°
2026-05-04 13:21 49.95518 -5.70440 34003 ft 480 kts 319°
2026-05-04 13:22 50.00458 -5.77341 34004 ft 480 kts 319°
2026-05-04 13:22 50.05412 -5.84272 33985 ft 479 kts 319°
2026-05-04 13:23 50.10381 -5.91250 33995 ft 480 kts 319°
2026-05-04 13:23 50.15326 -5.98218 34012 ft 480 kts 320°
2026-05-04 13:24 50.20290 -6.05231 34018 ft 480 kts 319°
2026-05-04 13:24 50.25265 -6.12272 34004 ft 480 kts 320°
2026-05-04 13:25 50.32644 -6.22762 34001 ft 478 kts 320°
2026-05-04 13:25 50.37481 -6.29674 34003 ft 456 kts 320°
2026-05-04 13:26 50.39869 -6.33097 33992 ft 440 kts 320°
2026-05-04 13:26 50.42115 -6.36324 34010 ft 427 kts 320°
2026-05-04 13:26 50.46461 -6.42559 33993 ft 431 kts 320°
2026-05-04 13:27 50.50856 -6.48871 33990 ft 418 kts 321°
2026-05-04 13:27 50.52956 -6.51901 33846 ft 416 kts 321°
2026-05-04 13:27 50.55114 -6.55014 33644 ft 418 kts 321°
2026-05-04 13:28 50.57243 -6.58092 33273 ft 418 kts 321°
2026-05-04 13:28 50.59368 -6.61165 32891 ft 416 kts 321°
2026-05-04 13:28 50.61472 -6.64210 32483 ft 413 kts 321°
2026-05-04 13:28 50.63575 -6.67259 32054 ft 409 kts 322°
2026-05-04 13:29 50.65654 -6.70278 31586 ft 408 kts 322°
2026-05-04 13:29 50.66476 -6.71474 31440 ft 406 kts 322°
2026-05-04 13:29 50.66641 -6.71713 31409 ft 406 kts 321°
2026-05-04 13:30 50.68695 -6.74699 31005 ft 403 kts 321°
2026-05-04 13:30 50.70756 -6.77695 30526 ft 402 kts 321°
2026-05-04 13:30 50.72795 -6.80669 30113 ft 398 kts 322°
2026-05-04 13:30 50.74784 -6.83579 29727 ft 393 kts 322°
2026-05-04 13:31 50.76799 -6.86532 29209 ft 392 kts 322°
2026-05-04 13:31 50.78763 -6.89409 28720 ft 390 kts 322°
2026-05-04 13:31 50.80751 -6.92324 28324 ft 385 kts 322°
2026-05-04 13:31 50.82719 -6.95215 27892 ft 382 kts 322°
2026-05-04 13:32 50.84725 -6.98159 27349 ft 382 kts 321°
2026-05-04 13:32 50.86656 -7.00999 26922 ft 379 kts 322°
2026-05-04 13:32 50.88569 -7.03821 26495 ft 375 kts 323°
2026-05-04 13:32 50.90462 -7.06614 26057 ft 373 kts 322°
2026-05-04 13:33 50.92369 -7.09425 25625 ft 370 kts 322°
2026-05-04 13:33 50.94242 -7.12188 25143 ft 369 kts 322°
2026-05-04 13:33 50.96100 -7.14942 24729 ft 365 kts 322°
2026-05-04 13:33 50.97964 -7.17720 24298 ft 363 kts 322°
2026-05-04 13:34 50.99815 -7.20476 23812 ft 362 kts 322°
2026-05-04 13:34 51.01683 -7.23259 23426 ft 356 kts 322°
2026-05-04 13:34 51.03479 -7.25940 23012 ft 353 kts 322°
2026-05-04 13:34 51.05335 -7.28716 22550 ft 351 kts 322°
2026-05-04 13:35 51.07157 -7.31446 22089 ft 350 kts 322°
2026-05-04 13:35 51.07830 -7.32455 21934 ft 349 kts 322°
2026-05-04 13:35 51.09592 -7.35099 21556 ft 346 kts 322°
2026-05-04 13:36 51.11346 -7.37729 21138 ft 343 kts 322°
2026-05-04 13:36 51.13093 -7.40348 20706 ft 341 kts 322°
2026-05-04 13:36 51.14814 -7.42932 20300 ft 339 kts 322°
2026-05-04 13:36 51.16542 -7.45527 19864 ft 336 kts 321°
2026-05-04 13:37 51.18248 -7.48097 19459 ft 333 kts 322°
2026-05-04 13:37 51.19931 -7.50641 19076 ft 331 kts 322°
2026-05-04 13:37 51.21622 -7.53199 18674 ft 328 kts 321°
2026-05-04 13:37 51.23273 -7.55698 18232 ft 328 kts 321°
2026-05-04 13:38 51.24942 -7.58222 17570 ft 333 kts 321°
2026-05-04 13:38 51.26674 -7.60838 16911 ft 337 kts 321°
2026-05-04 13:38 51.28382 -7.63422 16267 ft 341 kts 321°
2026-05-04 13:38 51.30135 -7.66081 15649 ft 344 kts 320°
2026-05-04 13:39 51.31894 -7.68754 14995 ft 347 kts 320°
2026-05-04 13:39 51.33653 -7.71432 14333 ft 349 kts 319°
2026-05-04 13:39 51.35441 -7.74159 13692 ft 350 kts 319°
2026-05-04 13:39 51.37198 -7.76844 13071 ft 351 kts 319°
2026-05-04 13:40 51.39001 -7.79597 12429 ft 352 kts 319°
2026-05-04 13:40 51.40837 -7.82402 11799 ft 351 kts 319°
2026-05-04 13:40 51.42602 -7.85103 11354 ft 341 kts 319°
2026-05-04 13:40 51.44301 -7.87712 10940 ft 328 kts 319°
2026-05-04 13:41 51.45896 -7.90165 10648 ft 312 kts 319°
2026-05-04 13:41 51.47438 -7.92534 10171 ft 304 kts 319°
2026-05-04 13:41 51.48952 -7.94859 9806 ft 292 kts 319°
2026-05-04 13:42 51.51757 -7.99168 9274 ft 267 kts 319°
2026-05-04 13:42 51.53073 -8.01190 9068 ft 259 kts 319°
2026-05-04 13:42 51.54381 -8.03197 8486 ft 264 kts 319°
2026-05-04 13:42 51.55684 -8.05240 8125 ft 260 kts 316°
2026-05-04 13:43 51.56771 -8.07610 7951 ft 261 kts 301°
2026-05-04 13:43 51.57542 -8.10365 7310 ft 268 kts 294°
2026-05-04 13:43 51.58196 -8.13162 6767 ft 267 kts 293°
2026-05-04 13:43 51.58849 -8.15879 6523 ft 250 kts 295°
2026-05-04 13:44 51.59486 -8.18386 6296 ft 237 kts 296°
2026-05-04 13:44 51.60113 -8.20768 6133 ft 223 kts 296°
2026-05-04 13:44 51.60706 -8.23010 5928 ft 212 kts 296°
2026-05-04 13:44 51.61266 -8.25150 5601 ft 210 kts 296°
2026-05-04 13:45 51.61836 -8.27324 5227 ft 209 kts 297°
2026-05-04 13:45 51.62401 -8.29461 4844 ft 208 kts 297°
2026-05-04 13:45 51.62953 -8.31572 4566 ft 204 kts 297°
2026-05-04 13:45 51.63496 -8.33664 4423 ft 204 kts 296°
2026-05-04 13:46 51.64056 -8.35793 4271 ft 206 kts 299°
2026-05-04 13:46 51.64823 -8.37698 4081 ft 201 kts 322°
2026-05-04 13:46 51.65987 -8.38772 3930 ft 192 kts 346°
2026-05-04 13:46 51.67283 -8.39357 3762 ft 191 kts 346°
2026-05-04 13:47 51.68510 -8.39998 3586 ft 184 kts 345°
2026-05-04 13:47 51.69710 -8.40649 3314 ft 184 kts 345°
2026-05-04 13:47 51.70905 -8.41375 2990 ft 183 kts 334°
2026-05-04 13:47 51.71988 -8.42241 2862 ft 168 kts 347°
2026-05-04 13:48 51.73092 -8.42749 2594 ft 162 kts 346°
2026-05-04 13:48 51.74121 -8.43318 2395 ft 154 kts 345°
2026-05-04 13:48 51.75107 -8.43873 2223 ft 149 kts 345°
2026-05-04 13:48 51.76090 -8.44435 1979 ft 149 kts 345°
2026-05-04 13:49 51.77052 -8.44966 1806 ft 144 kts 344°
2026-05-04 13:49 51.78007 -8.45532 1582 ft 152 kts 345°
2026-05-04 13:49 51.78997 -8.46104 1386 ft 150 kts 343°
2026-05-04 13:49 51.79963 -8.46659 1183 ft 146 kts 343°
2026-05-04 13:50 51.80913 -8.47213 996 ft 147 kts 341°
2026-05-04 13:50 51.81888 -8.47791 794 ft 150 kts 341°
2026-05-04 13:50 51.82877 -8.48387 591 ft 152 kts 343°
2026-05-04 13:50 51.83854 -8.48955 473 ft 139 kts 342°
2026-05-04 13:51 51.84450 -8.49300 491 ft 46 kts 341°
2026-05-04 13:51 51.84575 -8.49374 493 ft 0 kts 340°
2026-05-04 13:51 51.84584 -8.49379 493 ft 2 kts 341°
2026-05-04 13:51 51.84617 -8.49398 494 ft 5 kts 340°
2026-05-04 13:52 51.84686 -8.49438 494 ft 8 kts 341°
2026-05-04 13:52 51.84743 -8.49466 494 ft 7 kts 359°
2026-05-04 13:52 51.84769 -8.49433 496 ft 2 kts 61°
2026-05-04 13:53 51.84781 -8.49392 498 ft 5 kts 69°
2026-05-04 13:53 51.84791 -8.49351 500 ft 4 kts 71°
2026-05-04 13:53 51.84801 -8.49287 502 ft 5 kts 88°
2026-05-04 13:54 51.84779 -8.49190 505 ft 6 kts 111°
2026-05-04 13:54 51.84774 -8.49146 506 ft 1 kts 77°
2026-05-04 13:54 51.84788 -8.49079 510 ft 0 kts 70°
2026-05-04 13:55 51.84791 -8.49064 510 ft 0 kts 70°
2026-05-04 13:55 51.84799 -8.49030 512 ft 0 kts 70°
2026-05-04 13:56 51.84799 -8.49031 512 ft 0 kts 70°
2026-05-04 13:57 51.84798 -8.49031 512 ft 0 kts 70°